Tracking 29892 objects as of 21-Nov-2024
HD Live streaming from Space Station
objects crossing your sky now

SL-16 DEB

Track SL-16 DEB now!
10-day predictions


NORAD ID: 43353
Int'l Code: 1995-058N
Perigee: 721.6 km
Apogee: 756.1 km
Inclination: 71.0 °
Period: 99.4 minutes
Semi major axis: 7109 km
RCS: Unknown
Launch date: October 31, 1995
Source: Commonwealth of Independent States (former USSR) (CIS)
Launch site: TYURATAM MISSILE AND SPACE COMPLEX (TTMTR)

Note: This is SATELLITE DEBRIS
Your satellite tracking list
Your tracking list is empty




NASA's NSSDC Master Catalog

Two Line Element Set (TLE):
1 43353U 95058N   24325.40884380  .00020280  00000-0  54170-2 0  9997
2 43353  70.9974 311.1587 0024295 350.1682   9.8979 14.48150881572128
Source of the keplerian elements: AFSPC